View from above orbital plane
|
View from above satellite
|
Ground track
|
The orbit data is extracted from the following two-line orbital elements,
1 23523U 95011C 21019.45277692 .00000490 00000-0 17092-3 0 9991
2 23523 25.4175 18.2750 6611158 151.9792 270.0110 3.15417973269868
Epoch (UTC): | 19 January 2021 10:51:59 |
Eccentricity: | 0.6611158 |
inclination: | 25.4175° |
perigee height: | 277 km |
apogee height: | 26246 km |
right ascension of ascending node: | 18.2750° |
argument of perigee: | 151.9792° |
revolutions per day: | 3.15417973 |
mean anomaly at epoch: | 270.0110° |
orbit number at epoch: | 26986 |
The dashed part of the orbit path shows where the satellite is in the earth's shadow,
|
|